STARLINK-1267, 45384

Orbit data source: Space-Track

STARLINK-1267, 45384 is a payload satellite owned by SpaceX/Seattle (US) in LEO that was launched on Wed, 18 Mar 2020 UTC via an FALCON 9 launch vehicle from the Air Force Eastern Test Range (AFETR). Payload-class satellites include a variety of spacecraft equipped with specific instruments for various scientific and technological missions. These include communications satellites like Starlink; space stations such as the ISS; scientific satellites like the Hubble; Earth observation satellites from companies like Planet Labs, Umbra, and HawkEye 360; GPS; miniature CubeSats for education and research; and military/defense satellites.

Loading next visibility...
Identifier
45384, 2020-019AA
Orbit
LEO
Last TLE update
7 hours ago
Origin
Manufacturer
SpaceX/Seattle
Mission
Operational Commercial Communications
Bus & Motor
STARLINK, Unknown motor
Mass
260 kg wet, ~248 kg dry
Launch date (UTC)
2020-03-18 (5 years ago)
Launch vehicle
FALCON 9
Launch site
Air Force Eastern Test Range (AFETR)
Object type
Payload
Rocket body
Debris
Shape & HBR
Box + 1 Pan, 8.86 m
Radar Cross Section
13.562 m², Large (>1 m²)

Expand to show TLE details & history

TLE from 7 hours ago
0 STARLINK-1267
1 45384U 20019AA  25182.08070159 -.00005266  00000-0 -33493-3 0  9990
2 45384  53.0535 196.7910 0001191  65.8347 294.2767 15.06398775292073
Epoch: 2025-07-01T01:56Z
TLE epoch observation values (Epoch: 2025-07-01T01:56:12.617Z)
Latitude
0.00003°
Longitude
-111.64283°
Altitude
547.755 km
Speed
7.59 km/s
True Right ascension
13h 07m 09s
True Declination
0° 00' 00"
Sunlit
Object was in daylight at epoch
Visualization orbit readout
Latitude
47.17247°
Longitude
13.27167°
Altitude
551.834 km
Speed
7.592 km/s
Apparent Right ascension
03h 29m 02s
Apparent Declination
37° 53' 21"
Sunlit
Object is in daylight
Visualization observer readout
Local Sidereal Time
20:26:41
Azimuth
51.388° ENE
Elevation
13.381°
Doppler factor
1
Orbital elements
Apogee altitude
548.311 km
Perigee altitude
546.661 km
Semi-major axis
6,925.623 km
Eccentricity
0.00012
Inclination
53.0535°
RAAN
196.791°
Arg. of periapsis
65.8347°
True anomaly
Unknown
Mean anomaly
294.2767°
Eccentric anomaly
Unknown
Mean motion
3.76578 °/min
Orbital period
95.6 mins
BSTAR
-0.00033493
Loading maneuver chart data...
Loading SW <> Apogee altitude chart data...
Loading historical data...
Loading historical data...
Loading historical data...
Loading historical data...
Loading historical data...
Loading historical data...
Loading historical data...

STARLINK-1267 Visibility forecast

Observer location: undefined°, undefined°

Span
Click to sort rows by Start time (UTC) header in descending order
Start Az.
Max El. time (UTC)
Max El. Az.
Max El.
End time (UTC)
End Az.
6 mins2025-07-01 10:24:30.895Z322.915° NNW2025-07-01 10:26:30.895Z21.878° NNE41.383°2025-07-01 10:30:30.895Z118.245° SE
4 mins2025-07-01 12:04:30.895Z256.775° W2025-07-01 12:05:30.895Z238.97° WSW17.028°2025-07-01 12:08:30.895Z190.665° SSW
6 mins2025-07-02 03:36:30.895Z226.015° WSW2025-07-02 03:38:30.895Z210.469° SW43.929°2025-07-02 03:42:30.895Z51.391° ENE
4 mins2025-07-02 05:17:30.895Z311.322° NW2025-07-02 05:18:30.895Z331.588° NNW20.251°2025-07-02 05:21:30.895Z24.673° NE
4 mins2025-07-02 08:38:30.895Z346.238° N2025-07-02 08:40:30.895Z23.591° NE19.091°2025-07-02 08:42:30.895Z59.074° ENE
|